This is the latest recevied weather packets stored in our database for station/object HA5CD-6. If no packets are shown the sender has not sent any weather packets the latest 10 day(s).
| Time | Temp. | Humidity | Pressure | Rain* | Wind** | Luminosity | Snow |
|---|---|---|---|---|---|---|---|
| 1777913550 | 29.44° C | 18% | 992 hPa | - | - | - | - |
| 1777912949 | 29.44° C | 18% | 992 hPa | - | - | - | - |
| 1777909341 | 28.89° C | 18% | 992 hPa | - | - | - | - |
| 1777908757 | 31.67° C | 16% | 992 hPa | - | - | - | - |
| 1777906942 | 32.22° C | 15% | 992 hPa | - | - | - | - |
| 1777906348 | 31.67° C | 16% | 992 hPa | - | - | - | - |
| 1777905234 | 31.11° C | 15% | 992 hPa | - | - | - | - |
| 1777904540 | 32.22° C | 15% | 992 hPa | - | - | - | - |
| 1777903940 | 31.67° C | 14% | 992 hPa | - | - | - | - |
| 1777903341 | 32.22° C | 16% | 992 hPa | - | - | - | - |
| 1777902817 | 31.67° C | 14% | 993 hPa | - | - | - | - |
| 1777901539 | 30.56° C | 17% | 993 hPa | - | - | - | - |
| 1777900957 | 31.11° C | 16% | 993 hPa | - | - | - | - |
| 1777900348 | 30.56° C | 18% | 993 hPa | - | - | - | - |
| 1777899139 | 31.11° C | 17% | 993 hPa | - | - | - | - |
| 1777897939 | 30° C | 18% | 993 hPa | - | - | - | - |
| 1777896738 | 27.78° C | 20% | 994 hPa | - | - | - | - |
| 1777895538 | 27.22° C | 21% | 994 hPa | - | - | - | - |
| 1777894938 | 27.22° C | 21% | 994 hPa | - | - | - | - |
| 1777894338 | 26.11° C | 23% | 994 hPa | - | - | - | - |
| 1777893738 | 26.67° C | 22% | 994 hPa | - | - | - | - |
| 1777893138 | 26.11° C | 22% | 994 hPa | - | - | - | - |
| 1777892538 | 26.67° C | 23% | 995 hPa | - | - | - | - |
| 1777891938 | 26.11° C | 23% | 995 hPa | - | - | - | - |
| 1777890737 | 25.56° C | 23% | 995 hPa | - | - | - | - |
* Rain since midnight (hover to see other rain measurements)
** Current wind speed in m/s (hover to see current wind gust speed)